Regional Weather Roundup
Issued by NWS

Home | Current Version | Previous Version | Graphics & Text | Print | Product List | Glossary On
Versions: 1 2 3 4 5 6 7 8 9 10 11 12 13 14 15 16 17 18 19 20 21 22 23 24 25 26 27 28 29 30 31 32 33 34 35 36 37 38 39 40 41 42 43 44 45 46 47 48 49 50
000
ASUS43 KOAX 032210
RWRNE

WEATHER ROUNDUP FOR NEBRASKA
NATIONAL WEATHER SERVICE OMAHA NE
500 PM CDT MON AUG 03 2015

NOTES: SATELLITE DATA IS BEING USED TO AUGMENT CLOUD COVER ABOVE
       12000 FEET.
       "FAIR" INDICATES FEW OR NO CLOUDS BELOW 12,000 FEET WITH NO
       SIGNIFICANT WEATHER AND/OR OBSTRUCTIONS TO VISIBILITY.

  * THESE STATIONS DO NOT REPORT WEATHER SUCH AS RAIN...SNOW OR FOG.

NEZ001>004-019>022-054>056-032300-
NEBRASKA PANHANDLE

CITY           SKY/WX    TMP DP  RH WIND       PRES   REMARKS
SCOTTSBLUFF    PTSUNNY   89  62  40 SE15      29.96F
ALLIANCE       CLOUDY    86  60  41 S15       29.97F
CHADRON        PTSUNNY   89  59  36 S10       29.92F
KIMBALL        CLOUDY    86  45  24 S15G21    30.03F
SIDNEY         CLOUDY    91  51  25 S16       30.02S
$$

NEZ057>060-069>072-079>082-032300-
SOUTHWEST NEBRASKA

CITY           SKY/WX    TMP DP  RH WIND       PRES   REMARKS
NORTH PLATTE   PTSUNNY   82  69  64 E15       29.96F
IMPERIAL       CLOUDY    87  64  46 SE12      29.97F
LEXINGTON      CLOUDY    84  69  60 SE9       29.97S
MCCOOK         PTSUNNY   91  69  48 E15       29.94F HX  96
OGALLALA       PTSUNNY   87  63  44 S12       29.97F
$$

NEZ005>010-023>029-035>040-094-032300-
NORTH CENTRAL NEBRASKA

CITY           SKY/WX    TMP DP  RH WIND       PRES   REMARKS
AINSWORTH      PTSUNNY   80  62  54 E9        29.99F
BROKEN BOW     MOSUNNY   86  63  45 SE13      29.97F
O`NEILL        MOSUNNY   82  61  48 SE6       29.99F
ORD            PTSUNNY   83  58  42 E9        29.96F
THEDFORD       PTSUNNY   88  61  39 SE14      29.98F
$$

NEZ041-046>049-061>064-073>077-083>087-032300-
SOUTH CENTRAL NEBRASKA

CITY           SKY/WX    TMP DP  RH WIND       PRES   REMARKS
GRAND ISLAND   PTSUNNY   81  64  56 E10       29.97F
AURORA         PTSUNNY   80  66  63 E9        29.97F
HASTINGS       PTSUNNY   81  70  69 NE12      29.96F
HEBRON         MOSUNNY   86  72  62 NE9       29.93S HX  92
HOLDREGE       CLOUDY    83  69  61 E8        29.96F
KEARNEY *      PTSUNNY   82  68  61 E10       29.97S
YORK           PTSUNNY   81  68  65 E10       29.96F
$$

NEZ011>018-030>034-042>045-032300-
NORTHEAST NEBRASKA

CITY           SKY/WX    TMP DP  RH WIND       PRES   REMARKS
NORFOLK        SUNNY     81  60  48 NE7       29.97F
ALBION         MOSUNNY   80  63  55 E7        29.98F
BLAIR          CLOUDY    79  61  54 E5        29.97F
COLUMBUS *     MOSUNNY   81  61  50 E5        29.96F
FREMONT        MOSUNNY   81  61  51 N5        29.97F
TEKAMAH        MOSUNNY   83  64  52 CALM      29.96F
WAYNE          SUNNY     81  64  56 E3        29.98F
$$

NEZ050>053-065>068-078-088>093-032300-
SOUTHEAST NEBRASKA

CITY           SKY/WX    TMP DP  RH WIND       PRES   REMARKS
LINCOLN        MOSUNNY   84  65  52 E9        29.95F
OMAHA EPPLEY   PTSUNNY   83  64  52 NE5       29.95F
BEATRICE       MOSUNNY   83  69  62 E7        29.95R
FALLS CITY     PTSUNNY   82  73  74 E7        29.92S
NEBRASKA CITY  MOSUNNY   79  65  60 E5        29.95F
PLATTSMOUTH    SUNNY     80  63  56 NE3       29.96F
$$

NEZ044-045-051>053-067-032300-
OMAHA AREA

CITY           SKY/WX    TMP DP  RH WIND       PRES   REMARKS
OMAHA EPPLEY   PTSUNNY   83  64  52 NE5       29.95F
BLAIR          CLOUDY    79  61  54 E5        29.97F
FREMONT        MOSUNNY   81  61  51 N5        29.97F
MILLARD        SUNNY     82  63  51 CALM      29.95F
OFFUTT AFB     SUNNY     82  60  46 VRB5      29.95F
PLATTSMOUTH    SUNNY     80  63  56 NE3       29.96F
WAHOO          FAIR      81  65  58 NE5       29.96F
$$



USA.gov is the U.S. government's official web portal to all federal, state and local government web resources and services.